Location: Montréal
(45.5017°N, 73.5673°W)
Time: 11:39:12
(UTC-05:00)

ISS - Visible Passes

Search period start: 20 January 2018 00:00
Search period end: 30 January 2018 00:00
Orbit: 402 x 407 km, 51.6° (Epoch: 21 January)

Date Brightness Start Highest point End Pass type
(mag) Time Alt. Az. Time Alt. Az. Time Alt. Az.
24 Jan -1.1 19:13:32 10° SSW 19:14:09 14° SSW 19:14:09 14° SSW visible
25 Jan -2.3 18:21:48 10° SSW 18:24:21 23° SE 18:24:21 23° SE visible
26 Jan -1.6 17:30:42 10° SSE 17:32:18 13° SE 17:33:54 10° ESE visible
26 Jan -2.4 19:05:03 10° WSW 19:07:07 36° SW 19:07:07 36° SW visible
27 Jan -3.4 18:12:52 10° SW 18:16:00 48° SE 18:17:08 32° E visible
27 Jan -0.4 19:49:29 10° W 19:49:48 12° W 19:49:48 12° W visible
28 Jan -3.1 18:56:54 10° W 18:59:44 49° NW 18:59:44 49° NW visible
29 Jan -3.9 18:04:24 10° WSW 18:07:40 82° NNW 18:09:36 23° ENE visible
29 Jan -0.7 19:41:33 10° WNW 19:42:15 14° WNW 19:42:15 14° WNW visible
